sat.trackr.live / text

‹ back to catalog

STARLINK-4164

NORAD 53282 · 2022-086AS

PAYLOAD ACTIVE UNKNOWN

§ Identity

Operator
Country
US
Launch date
2022-07-24
Launch site
AFETR
Launch vehicle
Mass (kg)
RCS (m²)

Purposes: comms

External: N2YO · Heavens-Above · Gunter

§ Orbital elements

Epoch: 2026-05-25T04:31:16.896000Z

Period
95.44 min
Inclination
53.2138°
Eccentricity
0.0001128
Mean motion
15.08835229 rev/d
Perigee alt
539.0 km
Apogee alt
540.5 km
Semi-major
6,917.9 km
B*
2.0710e-5
RAAN
200.7062°
Arg perigee
79.2934°
Mean anomaly
280.8185°
Rev number
21,274

§ Raw data

STARLINK-41641 53282U 22086AS  26145.18839000  .00000042  00000+0  20710-4 0  99942 53282  53.2138 200.7062 0001128  79.2934 280.8185 15.08835229212748

JSON: /api/v1/satellites/53282 · /tle

For live sub-satellite position, see the globe view (requires WebGL).

§ Visibility from observer

Set your observer location to see the next 7 days of passes ≥ 10°. The values pass through the URL so the page stays shareable.

No JS? Fill the form by hand. The geolocation button needs JavaScript.